Hourly Data Report for October 30, 2016

All times are specified in Local Standard Time (LST). Add 1 hour to adjust for Daylight Saving Time where and when it is observed.

QIKIQTARJUAQ A
NUNAVUT

67°32'48.000" N
64°01'54.000" W
5.50 m
2400577
YVM

Related Data

No related data is available for this station

Download Data

Hourly Data (October 2016)
Hourly Data Report for October 30, 2016
Temp Definition
°C
Dew Point Temp Definition
°C
Rel Hum Definition
%
Wind Dir Definition
10's deg

Wind Spd Definition
km/h
Visibility Definition
km
Stn Press Definition
kPa
Hmdx Definition


Wind Chill Definition


Weather Definition


TIME
00:00 Legend Double Dagger -0.1 -2.4 84 LegendMM 9 16.1 99.51   -3 LegendNANA
01:00 Legend Double Dagger 0.4 -3.5 75 17 22 16.1 99.52     LegendNANA
02:00 Legend Double Dagger -0.1 -3.5 78 17 18 16.1 99.55   -5 LegendNANA
03:00 Legend Double Dagger 0.1 -4.8 70 LegendMM 5 16.1 99.54     LegendNANA
04:00 Legend Double Dagger -0.5 -4.0 77 26 5 16.1 99.55   -2 LegendNANA
05:00 Legend Double Dagger -1.5 -3.5 86 20 13 16.1 99.60   -6 Snow
06:00 Legend Double Dagger -0.9 -2.8 87 35 22 16.1 99.71   -7 Snow
07:00 Legend Double Dagger -2.2 -2.6 97 35 24 3.2 99.83   -9 Snow
08:00 Legend Double Dagger -2.4 -3.0 96 3 9 16.1 99.98   -6 Snow
09:00 Legend Double Dagger -2.8 -3.6 95 7 18 4.8 100.06   -8 Snow
10:00 Legend Double Dagger -4.3 -9.8 66 21 17 16.1 100.10   -10 LegendNANA
11:00 Legend Double Dagger -3.9 -9.1 67 22 11 16.1 100.15   -8 LegendNANA
12:00 Legend Double Dagger -6.8 -10.9 73   0 16.1 100.21     LegendNANA
13:00 Legend Double Dagger -3.9 -8.2 72 19 18 16.1 100.21   -10 LegendNANA
14:00 Legend Double Dagger -3.8 -10.7 59 17 34 16.1 100.18   -12 LegendNANA
15:00 Legend Double Dagger -3.7 -11.3 56 17 28 16.1 100.22   -11 LegendNANA
16:00 Legend Double Dagger -3.6 -10.0 61 18 21 16.1 100.21   -10 LegendNANA
17:00 Legend Double Dagger -3.0 -10.0 59 19 17 16.1 100.16   -9 LegendNANA
18:00 Legend Double Dagger -2.4 -8.1 65 15 30 16.1 100.09   -10 LegendNANA
19:00 Legend Double Dagger -2.2 -7.9 65 17 18 16.1 100.03   -8 LegendNANA
20:00 Legend Double Dagger -4.8 -8.3 77 14 5 16.1 99.95   -7 LegendNANA
21:00 Legend Double Dagger -5.6 -9.2 76 15 8 16.1 99.83   -9 LegendNANA
22:00 Legend Double Dagger -4.5 -8.8 72 18 11 16.1 99.80   -9 LegendNANA
23:00 Legend Double Dagger -2.9 -7.1 73 LegendMM 9 16.1 99.73   -6 LegendNANA

Notes on Data Quality.

Legend

  • E = Estimated
  • M = Missing
  • NA = Not Available
  • ‡ = Partner data that is not subject to review by the National Climate Archives
Date modified: